Location: Peebles
(55.6410°N, 3.1709°W)
Time: 18:29:40
(UTC+01:00)

Daily predictions for brighter satellites

Satellite Brightness Start Highest point End
(mag) Time Altitude Azimuth Time Altitude Azimuth Time Altitude Azimuth
Cosmos 1745 Rocket 4.1 22:53:42 10° N 23:00:07 84° E 23:06:26 10° SSE
Cosmos 1346 Rocket 4.0 22:57:46 10° NNW 23:01:29 39° W 23:05:14 10° SSW
Cosmos 1626 4.1 23:00:07 10° SE 23:02:33 17° E 23:05:01 10° NE
Cosmos 1674 2.7 23:00:34 10° S 23:04:23 77° E 23:08:14 10° NNE
Spot 4 4.4 23:00:04 10° SE 23:04:47 53° ENE 23:09:32 10° N
Iridium 81 4.2 23:02:51 10° S 23:05:29 72° W 23:08:40 10° N
Meteor 1-24 Rocket 4.1 23:01:18 10° SSW 23:07:21 80° WNW 23:13:25 10° NNE
CENTAUR R/B 3.4 23:01:20 10° NW 23:08:47 71° NNE 23:17:08 10° ESE
Cosmos 1953 Rocket 4.2 23:05:30 10° SSW 23:09:47 57° WNW 23:14:09 10° N
Cosmos 2285 Rocket 4.0 23:03:45 10° SSW 23:10:05 79° ESE 23:16:25 10° NNE
SPOT 5 4.0 23:05:41 10° S 23:10:29 44° W 23:15:33 10° NNW
SL-14 R/B 4.1 23:07:03 10° SSE 23:10:35 34° E 23:14:11 10° NNE
Cosmos 1844 4.2 23:06:55 10° S 23:12:16 43° ESE 23:17:43 10° NE
Meteor 1-29 3.1 23:09:55 10° NNE 23:13:20 58° ESE 23:16:42 10° S
IGS 5A 4.0 23:09:29 10° S 23:13:32 54° W 23:17:39 10° NNW
H-2A R/B 4.1 23:10:57 10° E 23:13:46 18° NE 23:16:35 10° N
H-2A R/B 4.2 23:16:48 10° SW 23:20:56 23° W 23:25:09 10° NW
Lacrosse 5 2.5 23:16:35 10° SSW 23:21:07 34° SE 23:25:42 10° ENE
Cosmos 1844 Rocket 2.8 23:17:15 10° SSW 23:22:49 61° ESE 23:28:24 10° NE
Cosmos 1238 Rocket 4.1 23:24:10 10° SW 23:26:47 28° WNW 23:29:31 10° N
Mayak 0.8 23:26:10 10° NE 23:28:45 16° E 23:31:18 10° SE
Cosmos 1726 3.4 23:28:16 10° NNW 23:31:45 36° W 23:35:12 10° SSW
Cosmos 2082 Rocket 2.6 23:27:10 10° NNW 23:32:54 65° NE 23:38:35 10° SE
S3M 4.1 23:27:12 10° S 23:33:34 88° W 23:40:02 10° NNE
Cosmos 1709 Rocket 4.1 23:27:43 10° N 23:34:04 80° ENE 23:40:16 10° SSE
KORONAS-FOTON 4.2 23:31:19 10° SSW 23:35:13 68° WNW 23:39:09 10° N
Iridium 67 2.6 23:37:42 10° N 23:39:35 75° E 23:40:44 17° S
Cosmos 1269 Rocket 4.3 23:35:57 10° SW 23:41:16 74° WNW 23:46:37 10° NNE
NOSS 2-3 (D) 4.5 23:37:27 10° WSW 23:42:24 73° NNW 23:48:35 10° NE
Meteor 2-2 Rocket 4.4 23:38:45 10° N 23:44:24 67° ENE 23:49:48 11° SSE
Cosmos 1833 Rocket 2.8 23:39:26 10° NNW 23:45:06 81° NE 23:50:44 10° SE
Cosmos 2221 2.7 23:41:04 10° NNW 23:45:25 69° W 23:49:39 10° S
APEX 3.9 23:44:13 10° NW 23:46:46 29° WSW 23:49:24 11° S
Timation 1 Rocket 4.3 23:41:01 10° SSW 23:46:57 72° ESE 23:52:57 10° NE
CZ-2C R/B 4.0 23:41:32 10° S 23:47:11 49° W 23:52:48 10° NNW
ATLAS 3B R/B 3.3 23:40:59 10° NW 23:47:13 43° WSW 23:53:09 11° SSE
Nimbus 7 Rocket 4.5 23:41:24 10° NNE 23:47:25 84° ESE 23:53:28 10° SSW
Helios 1B rocket 3.2 23:44:49 10° N 23:48:51 53° WNW 23:52:51 10° SW
COBE Rocket 4.2 23:44:23 10° NNE 23:49:18 55° E 23:54:11 11° S
ATLAS 5 CENTAUR R/B 3.6 23:47:13 10° SE 23:49:27 13° ESE 23:51:47 10° E
Cosmos 2263 Rocket 3.9 23:47:52 10° WSW 23:53:06 36° NW 23:58:20 10° NNE
